When you browse on this site, cookies collect data to enhance your experience and personalize the content and advertising you see.
Visit our Privacy Policy to learn more. By continuing to use the site, you agree to this use of cookies and data.

Hourly Weather Jewłach

Today, 4 August, Tuesday

Time Temperature Precipitation Wind Pressure Humidity
00:00 +25°C° 0 mm 5 mps 759 mmHg 57%
01:00 +25°C° 0 mm 4 mps 759 mmHg 58%
02:00 +25°C° 0 mm 3 mps 759 mmHg 58%
03:00 +25°C° 0 mm 3 mps 759 mmHg 58%
04:00 +25°C° 0 mm 3 mps 759 mmHg 58%
05:00 +25°C° 0 mm 3 mps 759 mmHg 58%
06:00 +25°C° 0 mm 3 mps 759 mmHg 58%
07:00 +26°C° 0 mm 3 mps 759 mmHg 56%
08:00 +27°C° 0 mm 4 mps 759 mmHg 53%
09:00 +28°C° 0 mm 5 mps 760 mmHg 51%
10:00 +28°C° 0 mm 6 mps 759 mmHg 49%
11:00 +29°C° 0 mm 6 mps 759 mmHg 47%
12:00 +30°C° 0 mm 6 mps 759 mmHg 45%
13:00 +30°C° 0 mm 6 mps 758 mmHg 44%
14:00 +30°C° 0 mm 5 mps 758 mmHg 42%
15:00 +32°C° 0 mm 5 mps 758 mmHg 41%
16:00 +30°C° 0 mm 5 mps 758 mmHg 42%
17:00 +30°C° 0 mm 5 mps 758 mmHg 43%
18:00 +29°C° 0 mm 4 mps 757 mmHg 44%
19:00 +28°C° 0 mm 4 mps 758 mmHg 45%
20:00 +27°C° 0 mm 3 mps 758 mmHg 47%
21:00 +26°C° 0 mm 3 mps 758 mmHg 49%
22:00 +26°C° 0 mm 3 mps 758 mmHg 49%
23:00 +26°C° 0 mm 3 mps 758 mmHg 50%

Tomorrow, 5 August, Wednesday

Time Temperature Precipitation Wind Pressure Humidity
00:00 +26°C° 0 mm 3 mps 758 mmHg 51%
01:00 +26°C° 0 mm 3 mps 757 mmHg 52%
02:00 +25°C° 0 mm 3 mps 757 mmHg 53%
03:00 +25°C° 0 mm 3 mps 757 mmHg 54%
04:00 +25°C° 0 mm 2 mps 757 mmHg 54%
05:00 +25°C° 0 mm 2 mps 757 mmHg 55%
06:00 +25°C° 0 mm 2 mps 756 mmHg 55%
07:00 +26°C° 0 mm 2 mps 756 mmHg 52%
08:00 +27°C° 0 mm 2 mps 756 mmHg 48%
09:00 +28°C° 0 mm 2 mps 756 mmHg 45%
10:00 +29°C° 0 mm 2 mps 756 mmHg 41%
11:00 +30°C° 0 mm 2 mps 755 mmHg 38%
12:00 +33°C° 0 mm 3 mps 755 mmHg 34%
13:00 +32°C° 0 mm 2 mps 755 mmHg 33%
14:00 +34°C° 0 mm 2 mps 755 mmHg 31%
15:00 +33°C° 0 mm 1 mps 754 mmHg 30%
16:00 +34°C° 0 mm 2 mps 754 mmHg 31%
17:00 +34°C° 0 mm 2 mps 755 mmHg 33%
18:00 +32°C° 0 mm 2 mps 755 mmHg 34%
19:00 +31°C° 0 mm 3 mps 755 mmHg 38%
20:00 +29°C° 0 mm 4 mps 756 mmHg 42%
21:00 +27°C° 0 mm 5 mps 756 mmHg 46%
22:00 +27°C° 0 mm 5 mps 756 mmHg 47%
23:00 +26°C° 0 mm 4 mps 756 mmHg 48%

Day after tomorrow, 6 August, Thursday

Time Temperature Precipitation Wind Pressure Humidity
00:00 +26°C° 0 mm 4 mps 757 mmHg 50%
01:00 +25°C° 0 mm 3 mps 757 mmHg 53%
02:00 +24°C° 0 mm 3 mps 757 mmHg 56%
03:00 +24°C° 0 mm 2 mps 756 mmHg 59%
04:00 +24°C° 0 mm 2 mps 757 mmHg 59%
05:00 +24°C° 0 mm 1 mps 757 mmHg 60%
06:00 +24°C° 0 mm 1 mps 757 mmHg 61%
07:00 +25°C° 0 mm 2 mps 758 mmHg 56%
08:00 +27°C° 0 mm 2 mps 758 mmHg 52%
09:00 +28°C° 0 mm 2 mps 758 mmHg 47%
10:00 +29°C° 0 mm 2 mps 758 mmHg 43%
11:00 +31°C° 0 mm 3 mps 758 mmHg 38%
12:00 +33°C° 0 mm 3 mps 758 mmHg 34%
13:00 +34°C° 0 mm 3 mps 757 mmHg 32%
14:00 +34°C° 0 mm 2 mps 757 mmHg 31%
15:00 +35°C° 0 mm 2 mps 757 mmHg 30%
16:00 +35°C° 0 mm 3 mps 757 mmHg 31%
17:00 +34°C° 0 mm 3 mps 758 mmHg 32%
18:00 +34°C° 0 mm 4 mps 758 mmHg 33%
19:00 +32°C° 0 mm 4 mps 758 mmHg 36%
20:00 +30°C° 0 mm 5 mps 759 mmHg 39%
21:00 +29°C° 0 mm 6 mps 759 mmHg 41%
22:00 +27°C° 0 mm 5 mps 759 mmHg 45%
23:00 +26°C° 0 mm 4 mps 759 mmHg 48%

7 August, Friday

Time Temperature Precipitation Wind Pressure Humidity
00:00 +25°C° 0 mm 3 mps 759 mmHg 52%
01:00 +25°C° 0 mm 3 mps 759 mmHg 54%
02:00 +24°C° 0 mm 3 mps 759 mmHg 55%
03:00 +24°C° 0 mm 2 mps 759 mmHg 57%
04:00 +24°C° 0 mm 2 mps 759 mmHg 57%
05:00 +24°C° 0 mm 1 mps 759 mmHg 57%
06:00 +25°C° 0 mm 1 mps 759 mmHg 57%
07:00 +26°C° 0 mm 1 mps 759 mmHg 51%
08:00 +28°C° 0 mm 1 mps 759 mmHg 46%
09:00 +30°C° 0 mm 1 mps 759 mmHg 41%
10:00 +31°C° 0 mm 1 mps 759 mmHg 37%
11:00 +32°C° 0 mm 1 mps 758 mmHg 34%
12:00 +35°C° 0 mm 2 mps 758 mmHg 31%
13:00 +35°C° 0 mm 2 mps 758 mmHg 29%
14:00 +36°C° 0 mm 2 mps 757 mmHg 28%
15:00 +36°C° 0 mm 2 mps 757 mmHg 27%
16:00 +36°C° 0 mm 2 mps 757 mmHg 28%
17:00 +36°C° 0 mm 2 mps 757 mmHg 29%
18:00 +35°C° 0 mm 2 mps 757 mmHg 29%
19:00 +33°C° 0 mm 1 mps 757 mmHg 32%
20:00 +31°C° 0 mm 1 mps 758 mmHg 34%
21:00 +30°C° 0 mm 1 mps 758 mmHg 37%
22:00 +29°C° 0 mm 2 mps 758 mmHg 40%
23:00 +28°C° 0 mm 3 mps 758 mmHg 42%

8 August, Saturday

Time Temperature Precipitation Wind Pressure Humidity
00:00 +27°C° 0 mm 4 mps 758 mmHg 45%
01:00 +27°C° 0 mm 3 mps 757 mmHg 47%
02:00 +26°C° 0 mm 2 mps 757 mmHg 50%
03:00 +26°C° 0 mm 1 mps 757 mmHg 52%
04:00 +26°C° 0 mm 1 mps 757 mmHg 52%
05:00 +26°C° 0 mm 1 mps 757 mmHg 52%
06:00 +26°C° 0 mm 1 mps 757 mmHg 53%
07:00 +28°C° 0 mm 1 mps 757 mmHg 47%
08:00 +30°C° 0 mm 1 mps 756 mmHg 41%
09:00 +32°C° 0 mm 1 mps 756 mmHg 35%
10:00 +33°C° 0 mm 1 mps 756 mmHg 31%
11:00 +36°C° 0 mm 2 mps 755 mmHg 28%
12:00 +37°C° 0 mm 2 mps 755 mmHg 24%
13:00 +38°C° 0 mm 2 mps 754 mmHg 23%
14:00 +38°C° 0 mm 2 mps 754 mmHg 22%
15:00 +39°C° 0 mm 2 mps 753 mmHg 21%
16:00 +38°C° 0 mm 2 mps 753 mmHg 22%
17:00 +38°C° 0 mm 2 mps 753 mmHg 22%
18:00 +37°C° 0 mm 2 mps 753 mmHg 23%
19:00 +35°C° 0 mm 3 mps 754 mmHg 27%
20:00 +33°C° 0 mm 3 mps 754 mmHg 30%
21:00 +30°C° 0 mm 4 mps 754 mmHg 34%
22:00 +29°C° 0 mm 4 mps 754 mmHg 38%
23:00 +29°C° 0 mm 4 mps 754 mmHg 41%

9 August, Sunday

Time Temperature Precipitation Wind Pressure Humidity
00:00 +28°C° 0 mm 4 mps 754 mmHg 45%
01:00 +27°C° 0 mm 4 mps 754 mmHg 49%
02:00 +27°C° 0 mm 3 mps 754 mmHg 53%
03:00 +26°C° 0 mm 2 mps 753 mmHg 57%
04:00 +26°C° 0 mm 2 mps 753 mmHg 57%
05:00 +26°C° 0 mm 2 mps 753 mmHg 58%
06:00 +26°C° 0 mm 1 mps 753 mmHg 58%
07:00 +29°C° 0 mm 2 mps 753 mmHg 50%
08:00 +31°C° 0 mm 2 mps 753 mmHg 42%
09:00 +34°C° 0 mm 3 mps 753 mmHg 34%
10:00 +35°C° 0 mm 3 mps 752 mmHg 30%
11:00 +37°C° 0 mm 4 mps 752 mmHg 26%
12:00 +40°C° 0 mm 5 mps 752 mmHg 23%
13:00 +40°C° 0 mm 5 mps 751 mmHg 21%
14:00 +41°C° 0 mm 5 mps 751 mmHg 20%
15:00 +42°C° 0 mm 5 mps 750 mmHg 19%
16:00 +40°C° 0 mm 6 mps 750 mmHg 22%
17:00 +39°C° 0 mm 7 mps 750 mmHg 25%
18:00 +38°C° 0 mm 7 mps 750 mmHg 27%
19:00 +35°C° 0 mm 7 mps 751 mmHg 35%
20:00 +33°C° 0 mm 6 mps 751 mmHg 44%
21:00 +30°C° 0 mm 6 mps 751 mmHg 52%
22:00 +29°C° 0 mm 5 mps 751 mmHg 56%
23:00 +28°C° 0 mm 4 mps 751 mmHg 60%
Show more